This demonstration page uses our WeatherBlox Daily Observations layout. Learn more.

Left ArrowRight Arrow

39.12711, -84.51439

Hourly Observations for October 27, 2021

Temp ( °F °C ) Dew Point ( °F °C ) Humidity (%) Winds ( mph kmh ) Pressure ( in mb ) Visibility ( mi km ) Precip ( " mm )
12:53 am 00:53 Clear 39 3.9 38 3.3 96 96 N N/A 30.03 1017 10 16 N/A
1:53 am 01:53 Clear with Mist and Fog 37 2.8 37 2.8 100 100 N N/A 30.03 1017 3 5 N/A
2:02 am 02:02 Clear with Mist and Fog 37 2.8 37 2.8 100 100 N N/A 30.05 1018 3 4 N/A
2:09 am 02:09 Clear 36 2.2 36 2.2 100 100 ENE 3 6 30.05 1018 9 14 N/A
2:53 am 02:53 Clear with Mist and Fog 36 2.2 36 2.2 100 100 NE 3 6 30.04 1017 2 3 N/A
3:06 am 03:06 Clear 35 1.7 35 1.7 100 100 NE 5 7 30.05 1018 7 11 N/A
3:53 am 03:53 Partly Cloudy with Mist and Fog 36 2.2 36 2.2 100 100 NE 3 6 30.03 1017 2 2 N/A
3:56 am 03:56 Mostly Cloudy with Mist and Fog 36 2.2 36 2.2 100 100 N N/A 30.05 1018 1 1 N/A
4:24 am 04:24 Mostly Cloudy with Fog 35 1.7 35 1.7 100 100 N N/A 30.06 1018 0 0 N/A
4:53 am 04:53 Mostly Cloudy with Mist and Fog 34 1.1 34 1.1 100 100 N N/A 30.04 1017 1 1 N/A
5:53 am 05:53 Mostly Cloudy with Fog 33 0.6 33 0.6 100 100 N N/A 30.05 1018 1 1 N/A
6:00 am 06:00 Partly Cloudy with Mist and Fog 33 0.6 33 0.6 100 100 N N/A 30.08 1019 2 2 N/A
6:02 am 06:02 Partly Cloudy with Mist and Fog 34 1.1 34 1.1 100 100 N N/A 30.08 1018 3 5 N/A
6:09 am 06:09 Mostly Cloudy with Mist and Fog 34 1.1 34 1.1 100 100 NE 3 6 30.08 1018 5 8 N/A
6:13 am 06:13 Partly Cloudy with Mist and Fog 33 0.6 33 0.6 100 100 NE 5 7 30.08 1019 2 2 N/A
6:21 am 06:21 Mostly Cloudy with Mist and Fog 32 undefined 32 undefined 100 100 NE 5 7 30.08 1019 1 2 N/A
6:34 am 06:34 Mostly Cloudy with Fog 33 0.6 33 0.6 100 100 NNE 5 7 30.08 1019 1 1 N/A
6:49 am 06:49 Mostly Cloudy with Fog 32 undefined 32 undefined 100 100 NE 6 9 30.08 1019 0 0 N/A
6:53 am 06:53 Mostly Cloudy with Fog 32 undefined 32 undefined 100 100 NE 6 9 30.06 1018 0 0 N/A
7:53 am 07:53 Mostly Cloudy with Fog 32 undefined 32 undefined 100 100 NE 3 6 30.07 1018 0 0 N/A
8:28 am 08:28 Mostly Cloudy with Fog 33 0.6 33 0.6 100 100 N 5 7 30.10 1019 N/A N/A
8:53 am 08:53 Mostly Cloudy with Fog 34 1.1 34 1.1 100 100 NE 3 6 30.08 1019 N/A N/A
9:25 am 09:25 Mostly Cloudy with Fog 36 2.2 36 2.2 100 100 N N/A 30.11 1020 1 1 N/A
9:53 am 09:53 Mostly Cloudy with Patchy Fog 38 3.3 38 3.3 100 100 N N/A 30.10 1019 1 2 N/A
10:09 am 10:09 Partly Cloudy with Mist and Fog 39 3.9 39 3.9 100 100 N N/A 30.12 1020 6 10 N/A
10:53 am 10:53 Sunny 45 7.2 43 6.1 93 93 NE 3 6 30.09 1019 10 16 N/A
11:53 am 11:53 Mostly Sunny 50 10 41 5 71 71 NE 7 11 30.09 1019 10 16 N/A
12:53 pm 12:53 Mostly Sunny 52 11.1 41 5 66 66 VRB 5 7 30.05 1018 10 16 N/A
1:53 pm 13:53 Sunny 55 12.8 43 6.1 64 64 NNE 5 7 30.02 1017 10 16 N/A
2:53 pm 14:53 Sunny 56 13.3 43 6.1 62 62 E 9 15 29.98 1015 10 16 N/A
3:53 pm 15:53 Mostly Sunny 56 13.3 44 6.7 65 65 NE 12 19 29.96 1015 10 16 N/A
4:53 pm 16:53 Sunny 55 12.8 45 7.2 69 69 ENE 9 15 29.94 1014 10 16 N/A
5:53 pm 17:53 Mostly Sunny 53 11.7 44 6.7 72 72 NE 10 17 29.93 1014 10 16 N/A
6:53 pm 18:53 Mostly Clear 49 9.4 44 6.7 83 83 ENE 6 9 29.94 1014 10 16 N/A
7:42 pm 19:42 Mostly Cloudy 49 9.4 44 6.7 83 83 E 5 7 29.97 1015 10 16 N/A
7:53 pm 19:53 Mostly Cloudy 50 10 44 6.7 80 80 N N/A 29.97 1015 10 16 N/A
8:02 pm 20:02 Mostly Clear 50 10 45 7.2 83 83 ENE 5 7 29.96 1014 10 16 N/A
8:09 pm 20:09 Cloudy 50 10 45 7.2 83 83 E 6 9 29.95 1014 10 16 N/A
8:53 pm 20:53 Cloudy 50 10 45 7.2 83 83 ENE 7 11 29.93 1014 10 16 N/A
9:53 pm 21:53 Cloudy 50 10 45 7.2 83 83 ENE 9 15 29.91 1013 10 16 N/A
10:53 pm 22:53 Cloudy 50 10 45 7.2 83 83 ENE 8 13 29.88 1012 10 16 N/A
11:53 pm 23:53 Cloudy 50 10 45 7.2 83 83 VRB 7 11 29.88 1012 10 16 N/A

Powered by AerisWeather